Hurricane Symbol View the latest observations near Atlantic Potential Tropical Cyclone One.

Station 41002 (LLNR 830) - SOUTH HATTERAS - 225 NM South of Cape Hatteras Image indicating link to RSS feed of recent meteorological observations for station 41002


Conditions at 41002 as of
(8:00 pm EDT on 06/17/2024)
0000 GMT on 06/18/2024:
     

Click on the graph icon in the table below to see a time series plot of the last five days of that observation.

5-day plot - Wind Direction Wind Direction (WDIR): E ( 80 deg true )
5-day plot - Wind Speed Wind Speed (WSPD):9.0 m/s
5-day plot - Wind Gust Wind Gust (GST):11.0 m/s
5-day plot - Atmospheric Pressure Atmospheric Pressure (PRES):1018.3 mb
5-day plot - Pressure Tendency Pressure Tendency (PTDY): +0.0 mb ( Steady )
5-day plot - Air Temperature Air Temperature (ATMP): 25.0 °C
5-day plot - Water Temperature Water Temperature (WTMP): 25.7 °C
5-day plot - Dew Point Dew Point (DEWP): 22.3 °C
5-day plot - Wind Speed at 10 Meters Wind Speed at 10 meters (WSPD10M): 10 m/s
5-day plot - Wind Speed at 20 Meters Wind Speed at 20 meters (WSPD20M): 11 m/s
5-day plot -  Wind Speed, Wind Gust and Atmospheric Pressure Combined plot of Wind Speed, Gust, and Air Pressure
Supplemental Measurements
Highest 1-minute Wind Speed
Time (EDT)5-day plot - 1-Minute Wind Speed WSPD 5-day plot - 1-Minute Wind Direction WDIR
7:51 pm 10 m/s-
Previous observations
TIME
(EDT)
5-day plot - Wind Direction
WDIR
 
5-day plot - Wind Speed
WSPD
m/s
5-day plot - Wind Gust
GST
m/s
5-day plot - Wave Height
WVHT
m
5-day plot - Dominant Wave Period
DPD
sec
5-day plot - Average Wave Period
APD
sec
5-day plot - Mean Wave Direction
MWD
 
5-day plot - Atmospheric Pressure
PRES
mb
5-day plot - Pressure Tendency
PTDY
mb
5-day plot - Air Temperature
ATMP
°C
5-day plot - Water Temperature
WTMP
°C
5-day plot - Dew Point
DEWP
°C
5-day plot - Salinity
SAL
psu
5-day plot - Visibility
VIS
km
5-day plot - Tide (above MLLW)
TIDE
m
2024-06-17 07:50 pm E 9.0 12.0 1.9 75.5 NE1018.0- 25.0 25.8 22.2---
2024-06-17 07:40 pm E 10.0 12.0----1017.8- 25.1 25.8 22.3---
2024-06-17 07:20 pm E 9.0 11.0 1.5 75.3NNE1017.9- 25.2 25.8 22.3---
2024-06-17 07:10 pm E 9.0 11.0 1.5-5.3NNE1017.9- 25.2 25.8 22.5---
2024-06-17 07:00 pm E 9.0 10.0----1017.9 -0.8 25.3 25.8 22.6---
2024-06-17 06:50 pm E 9.0 11.0 1.8 75.4 NE1017.8- 25.3 25.8 22.5---
2024-06-17 06:40 pm E 8.0 10.0----1017.9- 25.3 25.8 22.7---
2024-06-17 06:30 pm E 8.0 10.0----1017.8- 25.3 25.8 22.5---
2024-06-17 06:20 pm E 8.0 10.0 1.6-5.1NNE-- 25.4 25.8 22.6---
2024-06-17 06:10 pm E 8.0 10.0 1.6-5.1NNE1017.9- 25.4 25.8 22.6---
2024-06-17 06:00 pmENE 8.0 10.0----1017.9 -1.3 25.4 25.7 22.6---
2024-06-17 05:50 pmENE 8.0 10.0 1.7 75.4 NE1017.9- 25.4 25.7 22.5---
2024-06-17 05:40 pmENE 8.0 10.0 1.7-5.4 NE1018.0- 25.4 25.7 22.5---
2024-06-17 05:30 pmENE 7.0 10.0----1018.0- 25.4 25.7 22.3---
2024-06-17 05:20 pmENE 7.0 9.0 1.6 75.4 NE1018.2- 25.3 25.7 22.3---
2024-06-17 05:10 pmENE 7.0 9.0----1018.2- 25.3 25.7 22.4---
2024-06-17 05:00 pmENE 7.0 9.0----1018.3 -1.4 25.3 25.7 22.4---
2024-06-17 04:50 pmENE 7.0 9.0 1.6 75.2 NE1018.4- 25.3 25.7 22.2---
2024-06-17 04:40 pmENE 8.0 9.0----1018.5- 25.3 25.7 21.9---
2024-06-17 04:30 pmENE 7.0 9.0----1018.6- 25.3 25.7 22.0---
2024-06-17 04:20 pmENE 7.0 9.0 1.5 75.3 NE1018.6- 25.3 25.7 22.0---
2024-06-17 04:10 pmENE 8.0 10.0 1.5-5.3 NE1018.7- 25.3 25.7 21.8---
2024-06-17 04:00 pmENE 8.0 9.0----1018.7 -1.4 25.3 25.7 21.9---
2024-06-17 03:50 pmENE 8.0 9.0 1.6 65.2 NE1018.7- 25.3 25.7 21.8---
2024-06-17 03:40 pmENE 8.0 10.0----1018.9- 25.3 25.7 22.0---
2024-06-17 03:30 pmENE 8.0 10.0----1018.9- 25.3 25.7 22.0---
2024-06-17 03:20 pmENE 8.0 10.0 1.6 75.1ENE1019.0- 25.2- 21.8---
2024-06-17 03:10 pmENE 8.0 10.0 1.6-5.1ENE1019.1- 25.3 25.7 21.7---
2024-06-17 03:00 pmENE 8.0 10.0----1019.2 -1.0 25.2 25.6 21.7---
2024-06-17 02:50 pmENE 8.0 10.0 1.6 65.1 NE1019.3- 25.2 25.7 21.9---
2024-06-17 02:40 pmENE 8.0 10.0----1019.3- 25.2 25.7 21.8---
2024-06-17 02:30 pmENE 8.0 10.0----1019.5- 25.2 25.7 21.7---
2024-06-17 02:20 pmENE 9.0 10.0 1.6 75.1ENE1019.5- 25.2 25.8 21.7---
2024-06-17 02:10 pmENE 8.0 10.0 1.6-5.1ENE1019.5- 25.2 25.8 22.0---
2024-06-17 02:00 pmENE 8.0 10.0----1019.7 -0.5 25.2 25.8 21.9---
2024-06-17 01:50 pmENE 8.0 10.0 1.5 65.1 NE1019.7- 25.2 25.8 21.8---
2024-06-17 01:40 pmENE 8.0 10.0----1019.8- 25.2 25.8 21.8---
2024-06-17 01:30 pmENE 8.0 10.0----1019.8- 25.2 25.8 21.9---
2024-06-17 01:20 pmENE 8.0 10.0 1.5 65.0 NE1019.9- 25.2 25.8 22.0---
2024-06-17 01:10 pmENE 8.0 10.0 1.5-5.0 NE1019.9- 25.2 25.8 22.1---
2024-06-17 01:00 pmENE 8.0 10.0----1020.1 +0.3 25.3 25.8 22.2---
2024-06-17 12:50 pmENE 8.0 10.0 1.4 65.0ENE1020.2- 25.3 25.8 22.2---
2024-06-17 12:40 pmENE 8.0 10.0----1020.4- 25.3 25.8 22.2---
2024-06-17 12:30 pmENE 8.0 10.0----1020.3- 25.3 25.8 22.0---
2024-06-17 12:20 pmENE 8.0 10.0 1.4 64.9 NE1020.2- 25.2 25.8 21.9---
2024-06-17 12:10 pmENE 8.0 10.0 1.4-4.9 NE1020.3- 25.3 25.8 22.3---
2024-06-17 12:00 pmENE 8.0 10.0----1020.2 +0.7 25.3 25.8 22.4---
2024-06-17 11:50 amENE 8.0 10.0 1.3 64.9 NE1020.2- 25.3 25.8 22.5---
2024-06-17 11:40 am E 7.0 9.0----1020.3- 25.3 25.8 22.3---
2024-06-17 11:30 am E 7.0 9.0----1020.3- 25.2 25.8 22.0---
2024-06-17 11:20 am E 7.0 9.0 1.4 65.0 NE1020.3- 25.3 25.8 22.1---
2024-06-17 11:10 amENE 7.0 9.0----1020.3- 25.3 25.8 22.1---
2024-06-17 11:00 amENE 8.0 10.0----1020.2 +0.9 25.3 25.7 22.3---
2024-06-17 10:50 amENE 8.0 10.0 1.4 65.1 NE1020.1- 25.3 25.7 22.1---
2024-06-17 10:40 amENE 8.0 10.0 1.4-5.1 NE1020.0- 25.2 25.7 22.1---
2024-06-17 10:30 amENE 8.0 10.0----1019.9- 25.3 25.7 22.4---
2024-06-17 10:20 amENE 8.0 10.0 1.3 65.1 NE1020.0- 25.3 25.6 22.3---
2024-06-17 10:10 amENE 8.0 10.0 1.3-5.1 NE1019.9- 25.3 25.6 22.4---
2024-06-17 10:00 amENE 8.0 10.0----1019.8 +0.9 25.3 25.6 22.6---
2024-06-17 09:50 amENE 8.0 10.0 1.3 65.0 NE1019.8- 25.3 25.5 22.6---
2024-06-17 09:40 amENE 8.0 10.0----1019.8- 25.3 25.5 22.4---
2024-06-17 09:30 amENE 8.0 9.0----1019.8- 25.3 25.6 22.7---
2024-06-17 09:20 amENE 8.0 9.0 1.2 65.1 NE1019.7- 25.3 25.6 22.4---
2024-06-17 09:10 amENE 7.0 9.0 1.2-5.1 NE1019.6- 25.4 25.6 22.5---
2024-06-17 09:00 amENE 8.0 9.0----1019.5 +0.9 25.4 25.5 22.5---
2024-06-17 08:50 amENE 8.0 9.0 1.2 65.1 NE1019.4- 25.4 25.5 22.3---
2024-06-17 08:40 amENE 8.0 10.0----1019.4- 25.4 25.5 22.4---
2024-06-17 08:30 amENE 8.0 10.0----1019.2- 25.3 25.5 22.4---
2024-06-17 08:20 amENE 8.0 9.0 1.1 55.2 NE1019.2- 25.4 25.5 22.7---
2024-06-17 08:10 amENE 8.0 10.0 1.1-5.2 NE1019.2- 25.4 25.5 22.6---
2024-06-17 08:00 amENE 7.0 9.0----1019.3 +0.9 25.4 25.5 22.6---
2024-06-17 07:50 amENE 7.0 9.0 1.2 55.1 NE1019.3- 25.3 25.5 22.6---
2024-06-17 07:40 amENE 7.0 9.0----1019.1- 25.3 25.5 22.8---
2024-06-17 07:30 amENE 6.0 8.0----1019.0- 25.2 25.5 22.6---
2024-06-17 07:20 amENE 6.0 8.0 1.1 75.2 E1019.0- 25.3 25.5 22.7---
2024-06-17 07:10 amENE 7.0 8.0 1.1-5.2 E1019.0- 25.3 25.5 22.5---
2024-06-17 07:00 amENE 7.0 8.0----1018.9 +0.6 25.3 25.5 22.6---
2024-06-17 06:50 amENE 6.0 8.0 1.2 65.1ENE1018.9- 25.3 25.5 22.5---
2024-06-17 06:40 amENE 6.0 7.0 1.2-5.1ENE1019.0- 25.2 25.5 22.4---
2024-06-17 06:30 amENE 6.0 7.0----1019.0- 25.2 25.6 22.4---
2024-06-17 06:20 amENE 6.0 7.0 1.2 65.1ENE1018.8- 25.2 25.6 22.5---
2024-06-17 06:10 amENE 6.0 8.0 1.2-5.1ENE1018.6- 25.1 25.6 22.2---
2024-06-17 06:00 amENE 6.0 7.0----1018.6 +0.0 25.1 25.6 22.5---
2024-06-17 05:50 amENE 6.0 8.0 1.2 65.1 NE1018.6- 25.1 25.6 22.5---
2024-06-17 05:40 amENE 6.0 7.0----1018.5- 25.1 25.6 22.5---
2024-06-17 05:30 amENE 6.0 7.0----1018.4- 25.1 25.6 22.6---
2024-06-17 05:20 amENE 6.0 7.0 1.2 65.2NNE1018.4- 25.0 25.7 22.6---
2024-06-17 05:10 amENE 6.0 7.0 1.2-5.2NNE1018.4- 25.0 25.7 22.8---
2024-06-17 05:00 amENE 5.0 7.0----1018.4 +0.0 25.1 25.7 22.8---
2024-06-17 04:50 amENE 6.0 7.0 1.2 65.2 NE1018.4- 25.1 25.8 22.7---
2024-06-17 04:40 amENE 6.0 8.0 1.2-5.2 NE1018.4- 25.2 25.8 22.7---
2024-06-17 04:30 amENE 6.0 7.0----1018.3- 25.2 25.8 22.6---
2024-06-17 04:20 amENE 6.0 7.0 1.2 65.1 NE1018.3- 25.2 25.8 22.6---
2024-06-17 04:10 amENE 6.0 7.0 1.2-5.1 NE1018.3- 25.2 25.8 22.6---
2024-06-17 04:00 amENE 6.0 7.0----1018.3 +0.0 25.2 25.8 22.5---
2024-06-17 03:50 amENE 6.0 7.0 1.2 65.1NNE1018.4- 25.3 25.8 22.8---
2024-06-17 03:40 amENE 6.0 7.0----1018.4- 25.3 25.8 22.8---
2024-06-17 03:30 amENE 6.0 7.0----1018.4- 25.3 25.8 22.7---
2024-06-17 03:20 amENE 6.0 7.0 1.2 65.1NNE1018.4- 25.2 25.8 22.7---
2024-06-17 03:10 amENE 6.0 7.0 1.2-5.1NNE1018.4- 25.3 25.8 22.8---
2024-06-17 03:00 amENE 6.0 8.0----1018.4 +0.0 25.3 25.8 22.6---
2024-06-17 02:50 am E 6.0 7.0 1.3 65.2NNE1018.4- 25.3 25.8 22.8---
2024-06-17 02:40 amENE 6.0 8.0 1.3-5.2NNE1018.2- 25.3- 23.0---
2024-06-17 02:30 amENE 7.0 9.0----1018.3- 25.3 25.8 22.8---
2024-06-17 02:20 am E 6.0 8.0 1.2 65.0 NE1018.3- 25.3 25.8 22.9---
2024-06-17 02:10 amENE 6.0 8.0 1.2-5.0 NE1018.3- 25.3 25.8 23.0---
2024-06-17 02:00 amENE 6.0 8.0----1018.2 -0.4 25.4 25.8 23.1---
2024-06-17 01:50 amENE 7.0 8.0 1.2 65.1NNE1018.3- 25.3 25.8 23.0---
2024-06-17 01:40 am E 6.0 8.0----1018.3- 25.5 25.8 23.4---
2024-06-17 01:30 amENE 6.0 8.0----1018.3- 25.4 25.9 23.1---
2024-06-17 01:20 amENE 7.0 8.0 1.2 54.9 NE1018.4- 25.4 25.9 23.2---
2024-06-17 01:10 amENE 7.0 8.0 1.2-4.9 NE1018.4- 25.4 25.9 23.3---
2024-06-17 01:00 amENE 7.0 9.0----1018.4 +0.0 25.5 26.0 23.4---
2024-06-17 12:50 amENE 7.0 8.0 1.2 54.9NNE1018.4- 25.5 26.0 23.3---
2024-06-17 12:40 amENE 7.0 9.0 1.2-4.9NNE1018.4- 25.5 25.9 23.4---
2024-06-17 12:30 amENE 7.0 9.0----1018.4- 25.5 25.9 23.5---
2024-06-17 12:20 amENE 7.0 8.0 1.1 54.8NNE1018.3- 25.5 25.9 23.6---
2024-06-17 12:10 amENE 7.0 8.0 1.1-4.8NNE1018.3- 25.5 25.9 23.5---
2024-06-17 12:00 amENE 7.0 9.0----1018.3 +0.0 25.5 25.9 23.4---
2024-06-16 11:50 pmENE 8.0 9.0 1.2 55.0NNE1018.3- 25.5 25.9 23.4---
2024-06-16 11:40 pmENE 8.0 9.0 1.2-5.0NNE1018.4- 25.5 25.9 23.5---
2024-06-16 11:30 pmENE 8.0 10.0----1018.4- 25.6 25.9 23.6---
2024-06-16 11:20 pmENE 8.0 9.0 1.1 54.8NNE1018.4- 25.6 26.0 23.6---
2024-06-16 11:10 pmENE 8.0 9.0 1.1-4.8NNE1018.5- 25.6 26.0 23.5---
2024-06-16 11:00 pmENE 7.0 9.0----1018.6 +0.8 25.6- 23.7---
2024-06-16 10:50 pmENE 7.0 9.0 1.1 54.7NNE1018.7- 25.6 26.1 23.6---
2024-06-16 10:40 pmENE 7.0 8.0----1018.7- 25.6 26.1 23.6---
2024-06-16 10:30 pmENE 7.0 9.0----1018.6- 25.7 26.1 23.7---
2024-06-16 10:20 pmENE 7.0 9.0 1.1 44.7NNE1018.4- 25.7 26.1 23.6---
2024-06-16 10:10 pmENE 8.0 9.0 1.1-4.7NNE1018.4- 25.6 26.1 23.7---
2024-06-16 10:00 pmENE 7.0 9.0----1018.4 +0.8 25.7 26.1 23.9---
2024-06-16 09:50 pmENE 7.0 9.0 1.0 64.7 E1018.4- 25.7 26.0 23.9---
2024-06-16 09:40 pmENE 7.0 9.0----1018.3- 25.8 26.1 24.0---
2024-06-16 09:30 pmENE 8.0 9.0----1018.4- 25.7 26.1 23.9---
2024-06-16 09:20 pmENE 8.0 10.0 1.0 134.5NNE1018.3- 25.7 26.2 23.8---
2024-06-16 09:10 pmENE 8.0 10.0 1.0-4.5NNE1018.2- 25.8 26.2 23.9---
2024-06-16 09:00 pmENE 8.0 9.0----1018.2 +0.8 25.8 26.2 23.9---
2024-06-16 08:50 pmENE 8.0 9.0 1.0 74.6 E1018.1- 25.9 26.2 24.1---
2024-06-16 08:40 pmENE 8.0 9.0----1018.0- 25.9 26.3 23.9---
2024-06-16 08:30 pmENE 8.0 10.0----1017.9- 25.9 26.3 24.0---
2024-06-16 08:20 pmENE 8.0 9.0 0.9 74.8 E1017.9- 26.0 26.4 24.2---
2024-06-16 08:10 pmENE 8.0 9.0 0.9-4.8 E1017.8- 25.9 26.3 24.0---
2024-06-16 08:00 pmENE 8.0 9.0----1017.8 +0.0 25.9 26.4 24.0---
2024-06-16 07:50 pm NE 8.0 10.0 0.9 85.0ESE1017.6- 26.0 26.4 24.2---

Detailed Wave Summary
for 41002 as of (7:40 pm EDT)
2340 GMT on 06/17/2024:

These wave data are displayed in rounded times.

     

Click on the graph icon in the table below to see a time series plot of the last five days of that observation.

5-day plot - Significant Wave Height Significant Wave Height (WVHT): 1.9 m
5-day plot - Swell Height Swell Height (SwH): 0.4 m
5-day plot - Swell Period Swell Period (SwP): 10.8 sec
5-day plot - Swell Direction Swell Direction (SwD): E
5-day plot - Wind Wave Height Wind Wave Height (WWH): 1.8 m
5-day plot - Wind Wave Period Wind Wave Period (WWP): 7.1 sec
5-day plot - Wind Wave Direction Wind Wave Direction (WWD): NE
5-day plot - Wave Steepness Wave Steepness (STEEPNESS): STEEP
5-day plot - Average Wave Period Average Wave Period (APD): 5.5 sec
Previous observations
TIME
(EDT)
5-day plot - Wave Height
WVHT
m
5-day plot - Swell Height
SwH
m
5-day plot - Swell Period
SwP
sec
5-day plot - Swell Direction
SwD
 
5-day plot - Wind Wave Height
WWH
m
5-day plot - Wind Wave Period
WWP
sec
5-day plot - Wind Wave Direction
WWD
 
5-day plot - Wave Steepness
STEEPNESS
 
5-day plot - Average Wave Period
APD
sec
2024-06-17 07:10 pm 1.5 0.5 9.1ENE 1.4 6.7 NNE STEEP 5.3
2024-06-17 06:40 pm 1.8 0.5 10.8 E 1.7 6.7 NE STEEP 5.4
2024-06-17 06:10 pm 1.6 0.4 12.1ENE 1.5 6.7 NNE STEEP 5.1
2024-06-17 05:40 pm 1.7 0.7 12.1 NE 1.5 7.1 NE STEEP 5.4
2024-06-17 05:10 pm 1.6 0.8 8.3ENE 1.4 6.7 NE STEEP 5.4
2024-06-17 04:40 pm 1.6 0.7 12.1 E 1.4 6.7 NE STEEP 5.2
2024-06-17 04:10 pm 1.5 0.6 8.3ENE 1.4 6.7 NE STEEP 5.3
2024-06-17 03:40 pm 1.6 0.6 10.8 E 1.4 6.2 NE STEEP 5.2
2024-06-17 03:10 pm 1.6 0.5 11.4ENE 1.5 7.1 ENE STEEP 5.1
2024-06-17 02:40 pm 1.6 0.5 11.4 E 1.5 6.2 NE STEEP 5.1
2024-06-17 02:10 pm 1.6 0.5 10.0 E 1.5 6.7 ENE STEEP 5.1
2024-06-17 01:40 pm 1.5 0.5 10.0NNW 1.4 5.6 NEVERY_STEEP 5.1
2024-06-17 01:10 pm 1.5 0.5 9.1 E 1.4 5.9 NEVERY_STEEP 5.0
2024-06-17 12:40 pm 1.4 0.6 7.7 E 1.3 5.9 ENEVERY_STEEP 5.0
2024-06-17 12:10 pm 1.4 0.5 10.0 E 1.3 5.6 NEVERY_STEEP 4.9
2024-06-17 11:40 am 1.3 0.6 10.8 E 1.2 5.9 NE STEEP 4.9
2024-06-17 11:10 am 1.4 0.5 12.9 E 1.3 5.6 NEVERY_STEEP 5.0
2024-06-17 10:40 am 1.4 0.5 12.1ESE 1.3 5.9 NEVERY_STEEP 5.1
2024-06-17 10:10 am 1.3 0.6 12.9 SE 1.2 5.6 NEVERY_STEEP 5.1
2024-06-17 09:40 am 1.3 0.5 12.1ESE 1.2 5.6 NEVERY_STEEP 5.0
2024-06-17 09:10 am 1.2 0.5 10.8 E 1.1 5.9 NE STEEP 5.1
2024-06-17 08:40 am 1.2 0.6 12.1ESE 1.1 5.6 NEVERY_STEEP 5.1
2024-06-17 08:10 am 1.1 0.6 10.0ESE 1.0 5.3 NEVERY_STEEP 5.2
2024-06-17 07:40 am 1.2 0.7 7.1 E 1.0 5.3 NEVERY_STEEP 5.1
2024-06-17 07:10 am 1.1 0.7 7.1 E 0.9 5.3 NE AVERAGE 5.2
2024-06-17 06:40 am 1.2 0.8 7.7 E 0.9 5.6 ENEVERY_STEEP 5.1
2024-06-17 06:10 am 1.2 0.7 6.7 E 1.0 5.9 ENE STEEP 5.1
2024-06-17 05:40 am 1.2 0.7 6.7 E 1.0 5.9 NE STEEP 5.1
2024-06-17 05:10 am 1.2 1.0 5.9NNE 0.7 4.3 NNE STEEP 5.2
2024-06-17 04:40 am 1.2 0.8 6.7ENE 0.9 5.6 NEVERY_STEEP 5.2
2024-06-17 04:10 am 1.2 0.9 6.2 NE 0.9 5.0 NE STEEP 5.1
2024-06-17 03:40 am 1.2 0.9 5.6NNE 0.8 4.8 NEVERY_STEEP 5.1
2024-06-17 03:10 am 1.2 0.9 5.9NNE 0.9 4.8 NNE STEEP 5.1
2024-06-17 02:40 am 1.3 0.8 12.1ESE 0.9 5.6 NNEVERY_STEEP 5.2
2024-06-17 02:10 am 1.2 0.7 6.2 NE 1.0 5.6 NNE STEEP 5.0
2024-06-17 01:40 am 1.2 0.7 6.7ENE 1.0 5.6 NNEVERY_STEEP 5.1
2024-06-17 01:10 am 1.2 0.6 7.7 E 1.0 4.8 NEVERY_STEEP 4.9
2024-06-17 12:40 am 1.2 0.5 12.1ENE 1.1 5.3 NNEVERY_STEEP 4.9
2024-06-17 12:10 am 1.1 0.5 7.1 E 1.0 5.3 NNEVERY_STEEP 4.8
2024-06-16 11:40 pm 1.2 0.6 12.9ESE 1.0 4.8 NNEVERY_STEEP 5.0
2024-06-16 11:10 pm 1.1 0.5 12.9ENE 1.0 5.3 NNEVERY_STEEP 4.8
2024-06-16 10:40 pm 1.1 0.5 13.8 N 0.9 4.8 NNEVERY_STEEP 4.7
2024-06-16 10:10 pm 1.1 0.5 8.3ESE 1.0 4.3 NNEVERY_STEEP 4.7
2024-06-16 09:40 pm 1.0 0.6 12.9 E 0.9 6.2 E STEEP 4.7
2024-06-16 09:10 pm 1.0 0.6 12.9NNE 0.8 4.3 N AVERAGE 4.5
2024-06-16 08:40 pm 1.0 0.6 7.1 E 0.7 5.9 ENE AVERAGE 4.6
2024-06-16 08:10 pm 0.9 0.6 6.7 E 0.7 5.6 NE AVERAGE 4.8

Plot of wave energy versus frequency (and period)